AKDT,Max TemperatureF,Mean TemperatureF,Min TemperatureF,Max Dew PointF,MeanDew PointF,Min DewpointF,Max Humidity, Mean Humidity, Min Humidity, Max Sea Level PressureIn, Mean Sea Level PressureIn, Min Sea Level PressureIn, Max VisibilityMiles, Mean VisibilityMiles, Min VisibilityMiles, Max Wind SpeedMPH, Mean Wind SpeedMPH, Max Gust SpeedMPH,PrecipitationIn, CloudCover, Events, WindDirDegrees
2013-9-1,55,46,37,42,38,36,100,77,38,29.96,29.85,29.70,10,9,0,17,5,20,0.00,7,Fog,100
2013-9-2,63,53,43,48,43,39,90,66,35,29.68,29.57,29.41,10,10,10,39,14,58,0.02,7,Rain,139
2013-9-3,68,59,50,41,39,38,51,43,28,29.44,29.35,29.25,10,10,10,39,33,61,0.00,4,,189
2013-9-4,64,58,52,42,38,35,69,49,24,29.70,29.49,29.38,10,10,10,28,14,51,0.00,5,,201
2013-9-5,60,52,43,41,37,33,86,60,28,30.01,29.91,29.73,10,10,10,21,9,31,0.00,5,,203
2013-9-6,57,46,37,45,38,33,93,74,50,30.03,29.81,29.52,10,10,9,22,8,25,0.04,5,Rain,114
2013-9-7,64,52,39,46,39,35,83,49,24,29.65,29.59,29.49,10,10,10,33,25,50,0.00,5,Rain,212
2013-9-8,52,48,44,47,45,42,97,92,86,29.86,29.62,29.46,10,9,3,10,5,,0.12,7,Rain,281
2013-9-9,60,50,39,43,38,34,100,74,28,29.89,29.83,29.72,10,8,0,30,9,45,0.00,4,Fog,129
2013-9-10,62,54,48,39,37,34,53,44,32,29.75,29.73,29.71,10,10,10,31,25,45,0.00,5,,178
2013-9-11,60,52,45,47,43,37,93,77,47,29.88,29.69,29.56,10,10,5,29,8,40,0.04,6,Rain,156
2013-9-12,63,50,36,43,37,32,96,68,21,30.01,29.94,29.88,10,9,0,17,7,25,0.01,3,Fog,151
2013-9-13,61,49,37,39,35,32,86,60,23,29.99,29.94,29.91,10,10,10,23,6,33,0.00,5,,176
2013-9-14,51,42,34,43,38,33,89,76,62,30.12,30.04,29.99,10,10,10,10,6,,0.00,6,Rain,276
2013-9-15,51,40,30,37,32,27,93,70,30,30.16,30.11,30.02,10,10,10,6,3,,0.00,2,,270
2013-9-16,53,38,24,28,24,19,89,59,16,30.01,29.84,29.68,10,10,10,13,2,17,0.00,3,,41
2013-9-17,43,38,33,32,29,25,93,72,53,29.70,29.65,29.60,10,9,2,12,6,,0.00,8,Snow,267
2013-9-18,36,33,30,27,26,25,86,75,53,29.79,29.75,29.66,10,10,7,9,5,,0.00,8,Snow,291
2013-9-19,35,32,30,29,27,24,96,84,64,29.75,29.67,29.63,10,7,1,12,5,,0.02,8,Snow,278
2013-9-20,34,31,28,27,23,19,93,74,46,29.63,29.46,29.23,10,10,7,12,7,,0.00,8,Snow,313
2013-9-21,37,27,17,23,19,13,85,67,44,29.26,29.20,29.16,10,10,10,7,3,,0.00,5,,235
2013-9-22,34,29,24,25,22,18,93,79,58,29.58,29.37,29.20,10,5,0,16,10,23,0.03,8,Fog-Snow,292
2013-9-23,34,30,26,25,22,17,93,74,38,29.94,29.74,29.60,10,8,1,8,6,,0.02,8,Snow,264
2013-9-24,37,30,23,25,23,21,88,72,44,30.10,30.00,29.82,10,10,9,23,8,36,0.01,5,Snow,134
2013-9-25,55,41,27,34,30,26,70,55,29,29.78,29.58,29.44,10,10,10,32,21,55,0.00,5,,146
2013-9-26,50,42,35,37,36,34,93,79,52,29.67,29.59,29.38,10,10,10,12,4,,0.00,5,,265
2013-9-27,46,41,35,36,33,29,86,71,46,29.36,29.25,29.21,10,10,10,23,16,31,0.00,5,,102
2013-9-28,39,34,28,34,31,26,96,89,80,29.38,29.32,29.26,10,9,2,8,5,,0.12,7,Rain-Snow,266
2013-9-29,33,32,32,32,31,30,96,92,87,29.66,29.50,29.35,10,4,1,10,7,17,0.12,8,Snow,287
2013-9-30,34,33,32,32,31,30,96,93,87,29.88,29.74,29.59,10,7,2,8,6,,0.01,8,Rain-Snow,289